📊 Raw Sensor Data
Showing records 42301 to 42325 of 84,999 total
| ID | Distance (ft) | Battery V | Battery A | Int Temp (°F) | Int Humid (%) | Ext Temp (°F) | Solar V | RSSI | SNR | Time Stamp |
|---|---|---|---|---|---|---|---|---|---|---|
| 42711 | 15.4 | 4.04 | 21 | 57 | 42 | 62 | 4.50 | -69 | 8 | 06/06/2025 07:15 AM |
| 42710 | 15.3 | 4.01 | 15 | 56 | 42 | 61 | 4.50 | -70 | 8 | 06/06/2025 07:00 AM |
| 42709 | 15.3 | 4.03 | 9 | 55 | 42 | 59 | 4.50 | -69 | 8 | 06/06/2025 06:45 AM |
| 42708 | 15.2 | 3.96 | 5 | 54 | 42 | 57 | 4.50 | -70 | 8 | 06/06/2025 06:30 AM |
| 42707 | 15.2 | 3.95 | 0 | 53 | 42 | 56 | 4.50 | -70 | 8 | 06/06/2025 06:15 AM |
| 42706 | 15.2 | 3.99 | -7 | 52 | 42 | 54 | 4.50 | -69 | 8 | 06/06/2025 06:00 AM |
| 42705 | 15.2 | 3.93 | -10 | 52 | 42 | 53 | 3.00 | -70 | 9 | 06/06/2025 05:45 AM |
| 42704 | 15.2 | 3.94 | -5 | 52 | 42 | 53 | 0.70 | -71 | 8 | 06/06/2025 05:30 AM |
| 42703 | 15.2 | 4.00 | -5 | 52 | 42 | 53 | 0.10 | -70 | 8 | 06/06/2025 05:15 AM |
| 42702 | 15.0 | 3.94 | -5 | 51 | 43 | 53 | 0.00 | -70 | 8 | 06/06/2025 05:00 AM |
| 42701 | 14.9 | 3.94 | -5 | 51 | 43 | 53 | 0.00 | -69 | 8 | 06/06/2025 04:45 AM |
| 42700 | 14.9 | 3.94 | -5 | 52 | 42 | 53 | 0.00 | -70 | 9 | 06/06/2025 04:30 AM |
| 42699 | 14.9 | 3.94 | -5 | 51 | 42 | 53 | 0.00 | -70 | 8 | 06/06/2025 04:15 AM |
| 42698 | 14.9 | 4.00 | -5 | 51 | 43 | 52 | 0.00 | -72 | 8 | 06/06/2025 04:00 AM |
| 42697 | 14.9 | 3.94 | -5 | 51 | 43 | 53 | 0.00 | -69 | 8 | 06/06/2025 03:45 AM |
| 42696 | 14.9 | 3.94 | -5 | 51 | 43 | 52 | 0.00 | -70 | 9 | 06/06/2025 03:30 AM |
| 42695 | 14.9 | 3.95 | -5 | 51 | 43 | 53 | 0.00 | -69 | 8 | 06/06/2025 03:15 AM |
| 42694 | 14.9 | 3.95 | -5 | 51 | 43 | 52 | 0.00 | -71 | 8 | 06/06/2025 03:00 AM |
| 42693 | 14.9 | 4.01 | -5 | 50 | 43 | 52 | 0.00 | -70 | 8 | 06/06/2025 02:45 AM |
| 42692 | 15.0 | 4.01 | -5 | 50 | 44 | 51 | 0.00 | -71 | 8 | 06/06/2025 02:30 AM |
| 42691 | 15.0 | 3.95 | -5 | 51 | 43 | 51 | 0.00 | -71 | 8 | 06/06/2025 02:15 AM |
| 42690 | 15.0 | 3.95 | -5 | 51 | 44 | 53 | 0.00 | -72 | 8 | 06/06/2025 02:00 AM |
| 42689 | 15.0 | 3.95 | -5 | 52 | 43 | 53 | 0.00 | -70 | 8 | 06/06/2025 01:45 AM |
| 42688 | 15.0 | 3.95 | -5 | 52 | 44 | 53 | 0.00 | -70 | 8 | 06/06/2025 01:30 AM |
| 42687 | 15.0 | 4.01 | -5 | 52 | 44 | 53 | 0.00 | -70 | 8 | 06/06/2025 01:15 AM |